"2016-07-17 00:00:00",1815769,9.48,95,1.135,0.217,26.4,110.6043,26.45,27.5,27.5,0,111.3,13,27.29,57.0
"2016-07-17 00:00:30",1815770,9.63,93,1.259,0.243,26.31,110.5984,26.43,27.48,27.64,0,111.3,13,27.28,55.0
"2016-07-17 00:01:00",1815771,9.82,92.7,0.546,0.18,26.27,110.5918,26.42,27.46,27.51,0,111.3,13,27.26,54.7
"2016-07-17 00:01:30",1815772,9.93,94.1,1.452,0.222,26.23,110.5839,26.4,27.45,27.19,0,111.3,13,27.24,56.1
"2016-07-17 00:02:00",1815773,9.36,90.8,1.449,0.374,26.32,110.5812,26.39,27.45,26.74,0,111.3,13,27.23,52.8
"2016-07-17 00:02:30",1815774,9.19,91.9,1.48,0.566,26.22,110.5837,26.39,27.45,26.83,0,111.3,13,27.24,53.9
"2016-07-17 00:03:00",1815775,9.94,93.1,1.01,0.127,26.15,110.5877,26.41,27.42,27.15,0,111.3,13,27.25,55.1
"2016-07-17 00:03:30",1815776,9.89,93.5,1.353,0.22,26.16,110.5908,26.41,27.44,26.96,0,111.3,13,27.26,55.5
"2016-07-17 00:04:00",1815777,9.82,96.9,1.603,0.19,26.17,110.5943,26.42,27.43,26.95,0,111.3,13,27.27,58.9
"2016-07-17 00:04:30",1815778,10.06,97.5,1.155,0.286,26.02,110.5958,26.43,27.42,27.21,0,111.3,13,27.27,59.5
"2016-07-17 00:05:00",1815779,9.9,96.9,1.47,0.33,25.91,110.5989,26.43,27.41,27.25,0,111.3,13,27.28,58.9
"2016-07-17 00:05:30",1815780,10.02,99,0.699,0.196,25.83,110.5986,26.43,27.42,27.69,0,111.3,13,27.28,61.0
"2016-07-17 00:06:00",1815781,10.16,99.9,0.716,0.15,25.82,110.5983,26.43,27.42,27.81,0,111.3,13,27.28,61.9
"2016-07-17 00:06:30",1815782,10.23,100,0.712,0.091,25.69,110.5992,26.43,27.41,28.32,0,111.3,13,27.28,62.0
"2016-07-17 00:07:00",1815783,10.37,101.3,0.855,0.17,25.74,110.5967,26.43,27.42,28.31,0,111.3,13,27.27,63.3
"2016-07-17 00:07:30",1815784,10.69,101.9,0.692,0.055,25.69,110.5992,26.43,27.42,28.22,0,111.3,12.99,27.28,63.9
"2016-07-17 00:08:00",1815785,10.36,101.6,0.828,0.178,25.71,110.6023,26.44,27.39,28.17,0,111.3,12.99,27.29,63.6
"2016-07-17 00:08:30",1815786,10.08,102.4,0.759,0.104,25.75,110.602,26.44,27.42,27.89,0,111.3,12.99,27.29,64.4
"2016-07-17 00:09:00",1815787,10.1,103.7,0.504,0.158,25.75,110.602,26.44,27.41,27.68,0,111.3,12.99,27.29,65.7
"2016-07-17 00:09:30",1815788,10.2,102.6,0.991,0.273,25.71,110.6017,26.44,27.4,27.67,0,111.3,12.99,27.29,64.6
"2016-07-17 00:10:00",1815789,10.14,102.4,0.66,0.167,25.69,110.6036,26.45,27.39,27.67,0,111.3,12.99,27.29,64.4
"2016-07-17 00:10:30",1815790,10.16,101.9,0.843,0.109,25.68,110.6026,26.44,27.41,27.71,0,111.3,12.99,27.29,63.9
"2016-07-17 00:11:00",1815791,10.32,100.4,0.875,0.237,25.79,110.6026,26.44,27.4,27.56,0,111.3,12.99,27.29,62.4
"2016-07-17 00:11:30",1815792,10.33,100.9,0.671,0.177,25.82,110.6033,26.44,27.4,27.79,0,111.3,12.99,27.29,62.9
"2016-07-17 00:12:00",1815793,10.19,102.5,0.727,0.082,25.85,110.6036,26.45,27.42,28.21,0,111.3,12.99,27.29,64.5
"2016-07-17 00:12:30",1815794,10.39,101.7,0.845,0.11,25.91,110.6036,26.45,27.41,28.36,0,111.3,13,27.29,63.7
"2016-07-17 00:13:00",1815795,10.66,103.8,1.35,0.19,25.87,110.603,26.44,27.4,28.5,0,111.3,13,27.29,65.8
"2016-07-17 00:13:30",1815796,10.47,101.9,1.904,0.122,25.93,110.5999,26.44,27.39,28.36,0,111.3,13,27.28,63.9
"2016-07-17 00:14:00",1815797,10.55,101.5,1.325,0.183,26,110.5933,26.42,27.39,28.13,0,111.3,13,27.26,63.5
"2016-07-17 00:14:30",1815798,10.29,103.1,1.753,0.227,25.95,110.5752,26.37,27.38,28.09,0,111.3,13,27.22,65.1
"2016-07-17 00:15:00",1815799,9.75,103.3,0.971,0.2,25.94,110.5724,26.37,27.36,28.21,0,111.3,13,27.21,65.3
"2016-07-17 00:15:30",1815800,9.42,100.9,0.947,0.112,26.04,110.5758,26.37,27.35,28.19,0,111.3,13,27.22,62.9
"2016-07-17 00:16:00",1815801,9.35,100.7,1.096,0.161,26.1,110.5718,26.36,27.34,28.39,0,111.3,13,27.21,62.7
"2016-07-17 00:16:30",1815802,9.47,100.7,1.101,0.243,26.17,110.559,26.33,27.33,28.05,0,111.3,13,27.17,62.7
"2016-07-17 00:17:00",1815803,9.49,102,0.886,0.117,26.19,110.5448,26.29,27.31,28.07,0,111.3,13,27.14,64.0
"2016-07-17 00:17:30",1815804,9.45,102.2,1.477,0.127,26.18,110.5446,26.29,27.3,28,0,111.3,13,27.14,64.2
"2016-07-17 00:18:00",1815805,9.43,101.4,1.627,0.18,26.18,110.5449,26.29,27.29,28.44,0,111.3,13,27.14,63.4
"2016-07-17 00:18:30",1815806,10.17,100.9,1.09,0.382,26.14,110.5331,26.26,27.28,28.34,0,111.3,13,27.11,62.9
"2016-07-17 00:19:00",1815807,10.17,99.9,0.857,0.173,26.16,110.5161,26.22,27.27,28.26,0,111.3,13,27.06,61.9
"2016-07-17 00:19:30",1815808,10.57,99.9,0.793,0.268,26.16,110.5121,26.21,27.24,28.68,0,111.3,13,27.05,61.9
"2016-07-17 00:20:00",1815809,10.42,100,1.134,0.308,26.16,110.5121,26.21,27.23,28.94,0,111.3,13,27.05,62.0
"2016-07-17 00:20:30",1815810,10.55,98.1,1.606,0.21,26.17,110.5037,26.19,27.22,29.02,0,111.3,13,27.03,60.1
"2016-07-17 00:21:00",1815811,10.68,97.8,2.693,0.275,26.1,110.4832,26.14,27.2,29.2,0,111.3,13.01,26.98,59.8
"2016-07-17 00:21:30",1815812,10.73,100.3,1.3,0.111,26.24,110.4784,26.12,27.17,28.88,0,111.3,13.01,26.97,62.3
"2016-07-17 00:22:00",1815813,11.08,100.9,1.552,0.176,26.25,110.4784,26.12,27.16,28.6,0,111.3,13.01,26.97,62.9
"2016-07-17 00:22:30",1815814,10.9,100.7,1.046,0.197,26.27,110.4723,26.11,27.13,28.55,0,111.3,13.01,26.95,62.7
"2016-07-17 00:23:00",1815815,10.73,99.1,1.127,0.285,26.13,110.4551,26.06,27.12,28.74,0,111.3,13.01,26.91,61.1
"2016-07-17 00:23:30",1815816,10.52,100.2,0.715,0.268,26.24,110.4447,26.04,27.1,28.9,0,111.3,13.01,26.88,62.2
"2016-07-17 00:24:00",1815817,10.62,101,0.921,0.169,26.27,110.4447,26.04,27.09,28.67,0,111.3,13.01,26.88,63.0
"2016-07-17 00:24:30",1815818,10.37,100.4,1.054,0.222,26.23,110.4447,26.04,27.06,28.56,0,111.3,13.01,26.88,62.4
"2016-07-17 00:25:00",1815819,10.42,103.2,1.061,0.165,26.27,110.4383,26.02,27.04,28.6,0,111.3,13,26.86,65.2
"2016-07-17 00:25:30",1815820,10.08,103,1.079,0.12,26.23,110.4251,25.99,27.05,28.68,0,111.3,13,26.83,65.0
"2016-07-17 00:26:00",1815821,10.62,103.7,1.508,0.402,26.27,110.4116,25.95,27.02,28.32,0,111.3,13,26.79,65.7
"2016-07-17 00:26:30",1815822,11.24,102.9,1.823,0.242,26.25,110.411,25.95,27,27.81,0,111.3,13,26.79,64.9
"2016-07-17 00:27:00",1815823,11.34,102.3,1.066,0.2,26.26,110.411,25.95,26.98,27.38,0,111.3,13,26.79,64.3
"2016-07-17 00:27:30",1815824,11.05,104.3,0.938,0.197,26.22,110.411,25.95,26.97,27.18,0,111.3,13,26.79,66.3
"2016-07-17 00:28:00",1815825,11.27,103.5,0.691,0.158,26.22,110.411,25.95,26.97,26.74,0,111.3,13,26.79,65.5
"2016-07-17 00:28:30",1815826,11.61,103.1,0.784,0.124,26.23,110.411,25.95,26.96,26.04,0,111.3,13,26.79,65.1
"2016-07-17 00:29:00",1815827,11.45,105.6,1.183,0.205,26.28,110.4108,25.95,26.94,26.34,0,111.3,13,26.79,67.6
"2016-07-17 00:29:30",1815828,11.54,106.7,0.645,0.177,26.23,110.4077,25.94,26.93,26.26,0,111.3,13,26.78,68.7
"2016-07-17 00:30:00",1815829,11.53,106.3,1.04,0.159,26.16,110.4088,25.95,26.92,25.82,0,111.3,13,26.79,68.3
"2016-07-17 00:30:30",1815830,11.17,106.5,1.336,0.245,26.14,110.4082,25.94,26.94,25.75,0,111.3,13.01,26.79,68.5
"2016-07-17 00:31:00",1815831,11.27,105.5,1.392,0.354,26.05,110.4068,25.94,26.92,25.87,0,111.3,13.01,26.78,67.5
"2016-07-17 00:31:30",1815832,11.28,106.3,1.042,0.195,26.07,110.4026,25.93,26.91,25.55,0,111.3,13.01,26.77,68.3
"2016-07-17 00:32:00",1815833,11.15,105,1.54,0.331,26.02,110.4009,25.92,26.91,25.66,0,111.3,13.01,26.77,67.0
"2016-07-17 00:32:30",1815834,11.73,105.3,1.084,0.135,26.02,110.3953,25.91,26.92,25.35,0,111.3,13.01,26.75,67.3
"2016-07-17 00:33:00",1815835,11.57,107.2,0.534,0.084,26.1,110.3911,25.9,26.9,25.15,0,111.3,13.01,26.74,69.2
"2016-07-17 00:33:30",1815836,11.5,107.2,0.66,0.136,26.13,110.3872,25.89,26.91,25.15,0,111.3,13.01,26.73,69.2
"2016-07-17 00:34:00",1815837,11.4,108,0.715,0.111,26.16,110.3856,25.89,26.9,25.16,0,111.3,13.01,26.73,70.0
"2016-07-17 00:34:30",1815838,11.18,108.8,0.891,0.143,26.16,110.3848,25.88,26.88,25.22,0,111.3,13.01,26.73,70.8
"2016-07-17 00:35:00",1815839,11.49,107.3,0.763,0.209,26.14,110.3883,25.89,26.89,25.23,0,111.3,13.01,26.73,69.3
"2016-07-17 00:35:30",1815840,11.13,107.7,0.612,0.139,26.16,110.3932,25.91,26.9,25.32,0,111.3,13.01,26.75,69.7
"2016-07-17 00:36:00",1815841,11.05,108,0.729,0.125,26.13,110.3965,25.91,26.89,25.33,0,111.3,13.01,26.76,70.0
"2016-07-17 00:36:30",1815842,11.32,106.5,1.138,0.324,26.2,110.402,25.93,26.9,25.31,0,111.3,13.01,26.77,68.5
"2016-07-17 00:37:00",1815843,11.48,106.4,0.547,0.075,26.14,110.4034,25.93,26.9,25.22,0,111.3,13.01,26.77,68.4
"2016-07-17 00:37:30",1815844,11.83,104.7,0.626,0.18,26.16,110.4093,25.95,26.91,25.02,0,111.3,13.01,26.79,66.7
"2016-07-17 00:38:00",1815845,11.93,104.5,0.943,0.096,26.21,110.415,25.96,26.9,24.88,0,111.3,13.01,26.80,66.5
"2016-07-17 00:38:30",1815846,11.68,103.3,0.602,0.106,26.05,110.4187,25.97,26.9,24.59,0,111.3,13.01,26.81,65.3
"2016-07-17 00:39:00",1815847,11.78,102.1,0.807,0.126,25.99,110.4159,25.96,26.9,24.55,0,111.3,13.01,26.81,64.1
"2016-07-17 00:39:30",1815848,11.68,101.8,0.962,0.236,25.97,110.4095,25.95,26.91,24.41,0,111.3,13.01,26.79,63.8
"2016-07-17 00:40:00",1815849,11.62,102.3,0.996,0.156,26.04,110.4049,25.94,26.91,24.49,0,111.3,13.01,26.78,64.3
"2016-07-17 00:40:30",1815850,11.86,101.6,1.256,0.136,26.04,110.4074,25.94,26.9,24.43,0,111.3,13.01,26.78,63.6
"2016-07-17 00:41:00",1815851,11.76,102.9,0.327,0.079,26.1,110.4077,25.94,26.88,24.44,0,111.3,13.01,26.78,64.9
"2016-07-17 00:41:30",1815852,11.83,102.2,0.544,0.079,26.09,110.4096,25.95,26.89,24.34,0,111.3,13.01,26.79,64.2
"2016-07-17 00:42:00",1815853,11.93,102,0.508,0.066,26.02,110.4047,25.93,26.87,24.39,0,111.3,13.01,26.78,64.0
"2016-07-17 00:42:30",1815854,11.94,102,0.607,0.093,26.05,110.4001,25.92,26.86,24.42,0,111.3,13.01,26.77,64.0
"2016-07-17 00:43:00",1815855,12.09,100.7,1.107,0.185,25.94,110.3924,25.9,26.87,24.48,0,111.3,13.01,26.75,62.7
"2016-07-17 00:43:30",1815856,12,100.2,1.588,0.106,25.95,110.3805,25.87,26.85,24.57,0,111.3,13.01,26.71,62.2
"2016-07-17 00:44:00",1815857,12.01,100.8,0.822,0.125,26,110.3809,25.87,26.83,24.7,0,111.3,13.01,26.72,62.8
"2016-07-17 00:44:30",1815858,12.04,101.7,0.76,0.17,26.06,110.3809,25.87,26.83,24.76,0,111.3,13.01,26.72,63.7
"2016-07-17 00:45:00",1815859,11.83,101.8,1.087,0.088,26.03,110.3775,25.86,26.82,24.82,0,111.3,13.01,26.71,63.8
"2016-07-17 00:45:30",1815860,11.85,100.3,0.622,0.117,26,110.3646,25.83,26.8,24.89,0,111.3,13.01,26.67,62.3
"2016-07-17 00:46:00",1815861,11.95,100.7,0.473,0.08,26.02,110.3485,25.79,26.79,24.85,0,111.3,13.01,26.63,62.7
"2016-07-17 00:46:30",1815862,12.07,101.7,0.695,0.195,26.05,110.3472,25.79,26.78,24.87,0,111.3,13.01,26.63,63.7
"2016-07-17 00:47:00",1815863,12.1,103.2,0.887,0.161,26.13,110.3472,25.79,26.77,24.85,0,111.3,13.01,26.63,65.2
"2016-07-17 00:47:30",1815864,12.15,103.2,0.541,0.128,26.09,110.3472,25.79,26.76,24.8,0,111.3,13.01,26.63,65.2
"2016-07-17 00:48:00",1815865,12.22,102.4,0.592,0.11,25.98,110.3472,25.79,26.74,24.75,0,111.3,13.01,26.63,64.4
"2016-07-17 00:48:30",1815866,12.18,102.9,0.786,0.138,26,110.3443,25.78,26.73,24.61,0,111.3,13.01,26.62,64.9
"2016-07-17 00:49:00",1815867,12.16,103.3,0.788,0.142,25.99,110.3337,25.75,26.73,24.59,0,111.3,13.02,26.59,65.3
"2016-07-17 00:49:30",1815868,12.14,102.1,0.86,0.137,25.94,110.3196,25.72,26.73,24.66,0,111.3,13.02,26.56,64.1
"2016-07-17 00:50:00",1815869,11.98,102.1,0.789,0.111,25.96,110.3134,25.7,26.71,24.52,0,111.3,13.02,26.54,64.1
"2016-07-17 00:50:30",1815870,11.93,101.4,0.789,0.145,25.94,110.3134,25.7,26.7,24.58,0,111.3,13.02,26.54,63.4
"2016-07-17 00:51:00",1815871,11.87,101.4,1.069,0.118,25.93,110.3134,25.7,26.69,24.59,0,111.3,13.02,26.54,63.4
"2016-07-17 00:51:30",1815872,11.98,101.4,1.564,0.129,25.96,110.3134,25.7,26.65,24.51,0,111.3,13.02,26.54,63.4
"2016-07-17 00:52:00",1815873,12.2,99.9,0.647,0.172,25.93,110.3078,25.69,26.66,24.49,0,111.3,13.02,26.53,61.9
"2016-07-17 00:52:30",1815874,12.2,99.4,0.757,0.145,25.9,110.2915,25.64,26.65,24.33,0,111.3,13.02,26.48,61.4
"2016-07-17 00:53:00",1815875,12.32,99.5,0.405,0.186,25.97,110.2803,25.61,26.64,24.2,0,111.3,13.02,26.46,61.5
"2016-07-17 00:53:30",1815876,12.61,100.1,0.531,0.165,25.98,110.2797,25.61,26.62,23.96,0,111.3,13.02,26.45,62.1
"2016-07-17 00:54:00",1815877,12.46,100.4,0.643,0.165,25.97,110.2797,25.61,26.61,23.78,0,111.3,13.02,26.45,62.4
"2016-07-17 00:54:30",1815878,12.71,100.1,0.656,0.168,25.92,110.2797,25.61,26.61,23.33,0,111.3,13.02,26.45,62.1
"2016-07-17 00:55:00",1815879,12.98,99.6,0.691,0.181,25.9,110.2797,25.61,26.6,23.2,0,111.3,13.02,26.45,61.6
"2016-07-17 00:55:30",1815880,12.87,99.3,1.184,0.128,25.8,110.2786,25.61,26.59,23.15,0,111.2,13.02,26.45,61.3
"2016-07-17 00:56:00",1815881,12.87,98.9,0.607,0.119,25.81,110.2671,25.58,26.57,23.6,0,111.2,13.02,26.42,60.9
"2016-07-17 00:56:30",1815882,12.61,97.6,1.632,0.21,25.74,110.2542,25.55,26.56,23.69,0,111.3,13.02,26.39,59.6
"2016-07-17 00:57:00",1815883,12.77,99.2,0.695,0.192,25.85,110.246,25.53,26.55,23.57,0,111.3,13.02,26.37,61.2
"2016-07-17 00:57:30",1815884,13.05,99.6,0.587,0.096,25.9,110.246,25.53,26.54,23.14,0,111.3,13.02,26.37,61.6
"2016-07-17 00:58:00",1815885,12.84,100.4,0.587,0.205,25.87,110.246,25.53,26.53,22.94,0,111.2,13.02,26.37,62.4
"2016-07-17 00:58:30",1815886,12.81,101.3,0.584,0.103,25.95,110.246,25.53,26.52,22.13,0,111.3,13.02,26.37,63.3
"2016-07-17 00:59:00",1815887,12.86,101.5,0.885,0.069,25.97,110.246,25.53,26.51,21.8,0,111.3,13.02,26.37,63.5
"2016-07-17 00:59:30",1815888,12.89,102.6,1.344,0.197,25.88,110.246,25.53,26.51,22.37,0,111.2,13.02,26.37,64.6
"2016-07-17 01:00:00",1815889,12.98,103.6,0.75,0.11,25.99,110.2463,25.53,26.51,20.88,0,111.3,13.02,26.37,65.6
"2016-07-17 01:00:30",1815890,12.87,104.3,0.872,0.112,25.94,110.2463,25.53,26.51,21.7,0,111.2,13.02,26.37,66.3
"2016-07-17 01:01:00",1815891,12.82,105.3,0.426,0.214,25.96,110.247,25.53,26.5,20.69,0,111.2,13.02,26.37,67.3
"2016-07-17 01:01:30",1815892,12.63,106.2,0.678,0.178,25.92,110.247,25.53,26.48,20.83,0,111.2,13.02,26.37,68.2
"2016-07-17 01:02:00",1815893,12.56,107.1,0.582,0.162,25.93,110.2473,25.53,26.49,21.34,0,111.2,13.02,26.37,69.1
"2016-07-17 01:02:30",1815894,12.79,106.6,0.469,0.081,25.8,110.2482,25.53,26.5,22.21,0,111.2,13.02,26.37,68.6
"2016-07-17 01:03:00",1815895,12.51,107.7,0.699,0.182,25.81,110.2485,25.53,26.51,22.59,0,111.2,13.02,26.37,69.7
"2016-07-17 01:03:30",1815896,12.33,108.6,0.589,0.187,25.83,110.2494,25.54,26.51,22.73,0,111.2,13.02,26.38,70.6
"2016-07-17 01:04:00",1815897,12.63,107.9,0.494,0.119,25.8,110.2515,25.54,26.53,22.42,0,111.2,13.02,26.38,69.9
"2016-07-17 01:04:30",1815898,12.54,107.9,0.666,0.117,25.83,110.2558,25.55,26.53,22.11,0,111.2,13.02,26.39,69.9
"2016-07-17 01:05:00",1815899,12.8,106.8,0.611,0.112,25.79,110.2588,25.56,26.54,21.84,0,111.2,13.02,26.40,68.8
"2016-07-17 01:05:30",1815900,12.77,107.4,0.58,0.146,25.75,110.2611,25.57,26.53,21.69,0,111.2,13.02,26.41,69.4
"2016-07-17 01:06:00",1815901,12.63,107.1,0.85,0.119,25.71,110.2629,25.57,26.53,22.09,0,111.2,13.02,26.41,69.1
"2016-07-17 01:06:30",1815902,12.61,107.7,0.584,0.218,25.76,110.2614,25.57,26.53,22.33,0,111.2,13.02,26.41,69.7
"2016-07-17 01:07:00",1815903,12.46,108.1,0.648,0.14,25.84,110.2588,25.56,26.54,22.54,0,111.2,13.02,26.40,70.1
"2016-07-17 01:07:30",1815904,12.5,108.4,1.022,0.156,25.79,110.2599,25.56,26.55,22.65,0,111.2,13.03,26.40,70.4
"2016-07-17 01:08:00",1815905,12.29,107.9,0.689,0.106,25.79,110.2614,25.57,26.56,22.8,0,111.2,13.03,26.41,69.9
"2016-07-17 01:08:30",1815906,12.26,108.2,0.528,0.13,25.72,110.2676,25.58,26.53,22.91,0,111.2,13.03,26.42,70.2
"2016-07-17 01:09:00",1815907,12.12,109.6,0.635,0.131,25.73,110.2677,25.58,26.54,23,0,111.2,13.03,26.42,71.6
"2016-07-17 01:09:30",1815908,12.38,108.3,0.858,0.195,25.74,110.2686,25.58,26.54,23.09,0,111.2,13.03,26.43,70.3
"2016-07-17 01:10:00",1815909,12.36,108.5,0.74,0.151,25.71,110.2702,25.59,26.53,23.27,0,111.2,13.03,26.43,70.5
"2016-07-17 01:10:30",1815910,12.28,108.1,0.646,0.111,25.75,110.2727,25.6,26.55,23.22,0,111.2,13.03,26.44,70.1
"2016-07-17 01:11:00",1815911,12.43,108.1,0.505,0.124,25.71,110.2724,25.59,26.52,23.32,0,111.2,13.03,26.44,70.1
"2016-07-17 01:11:30",1815912,12.27,108.1,0.655,0.088,25.7,110.2736,25.6,26.52,23.35,0,111.2,13.03,26.44,70.1
"2016-07-17 01:12:00",1815913,12.14,108.1,0.934,0.126,25.66,110.2739,25.6,26.53,23.47,0,111.2,13.03,26.44,70.1
"2016-07-17 01:12:30",1815914,12.29,108.8,0.39,0.116,25.67,110.2697,25.59,26.52,23.51,0,111.2,13.03,26.43,70.8
"2016-07-17 01:13:00",1815915,12.4,107.7,1.001,0.185,25.65,110.2607,25.56,26.51,23.71,0,111.2,13.03,26.41,69.7
"2016-07-17 01:13:30",1815916,12.49,109,1.063,0.11,25.75,110.2472,25.53,26.5,23.05,0,111.2,13.03,26.37,71.0
"2016-07-17 01:14:00",1815917,12.29,108.8,0.786,0.191,25.65,110.2442,25.52,26.49,23.16,0,111.2,13.03,26.36,70.8
"2016-07-17 01:14:30",1815918,12.53,109.2,0.595,0.173,25.64,110.2442,25.52,26.48,23.54,0,111.2,13.03,26.36,71.2
"2016-07-17 01:15:00",1815919,12.48,110.4,1.037,0.229,25.64,110.2473,25.53,26.48,23.55,0,111.2,13.03,26.37,72.4
"2016-07-17 01:15:30",1815920,11.99,108.5,1.737,0.422,25.57,110.2476,25.53,26.47,23.79,0,111.2,13.03,26.37,70.5
"2016-07-17 01:16:00",1815921,12.73,110.2,0.513,0.112,25.71,110.248,25.53,26.45,23.3,0,111.2,13.03,26.37,72.2
"2016-07-17 01:16:30",1815922,12.65,110.7,0.393,0.075,25.65,110.2399,25.51,26.45,23.07,0,111.2,13.03,26.35,72.7
"2016-07-17 01:17:00",1815923,12.67,110.1,0.466,0.096,25.71,110.2261,25.48,26.44,23.04,0,111.2,13.02,26.32,72.1
"2016-07-17 01:17:30",1815924,12.76,110,0.66,0.083,25.71,110.2239,25.47,26.44,23.15,0,111.2,13.02,26.31,72.0
"2016-07-17 01:18:00",1815925,12.76,110.1,0.677,0.153,25.68,110.222,25.46,26.43,23.42,0,111.2,13.02,26.31,72.1
"2016-07-17 01:18:30",1815926,12.46,110.9,0.547,0.121,25.65,110.2172,25.45,26.42,23.65,0,111.2,13.02,26.29,72.9
"2016-07-17 01:19:00",1815927,12.54,111.5,0.405,0.102,25.71,110.2158,25.45,26.41,23.76,0,111.2,13.02,26.29,73.5
"2016-07-17 01:19:30",1815928,12.44,111.6,0.191,0.072,25.67,110.2158,25.45,26.41,23.91,0,111.2,13.02,26.29,73.6
"2016-07-17 01:20:00",1815929,12.37,111.7,0.509,0.085,25.69,110.2158,25.45,26.4,23.86,0,111.2,13.02,26.29,73.7
"2016-07-17 01:20:30",1815930,12.44,112.3,0.623,0.107,25.65,110.2158,25.45,26.4,24,0,111.2,13.02,26.29,74.3
"2016-07-17 01:21:00",1815931,12.5,112.6,0.528,0.124,25.68,110.2158,25.45,26.39,23.83,0,111.2,13.02,26.29,74.6
"2016-07-17 01:21:30",1815932,12.49,112.1,0.774,0.105,25.65,110.2158,25.45,26.4,23.94,0,111.2,13.02,26.29,74.1
"2016-07-17 01:22:00",1815933,12.51,112.6,0.864,0.072,25.67,110.2158,25.45,26.38,24.03,0,111.2,13.02,26.29,74.6
"2016-07-17 01:22:30",1815934,12.49,112.7,0.192,0.09,25.71,110.2158,25.45,26.37,23.97,0,111.2,13.02,26.29,74.7
"2016-07-17 01:23:00",1815935,12.69,111.9,0.427,0.059,25.65,110.2158,25.45,26.37,23.99,0,111.2,13.03,26.29,73.9
"2016-07-17 01:23:30",1815936,12.51,111.7,0.028,0.069,25.62,110.2158,25.45,26.37,24.2,0,111.2,13.03,26.29,73.7
"2016-07-17 01:24:00",1815937,12.57,112.1,0.555,0.067,25.69,110.2155,25.45,26.36,24.04,0,111.2,13.03,26.29,74.1
"2016-07-17 01:24:30",1815938,12.62,112.2,0.581,0.04,25.68,110.2149,25.45,26.36,23.72,0,111.2,13.03,26.29,74.2
"2016-07-17 01:25:00",1815939,12.76,112.3,0.53,0.082,25.66,110.213,25.44,26.37,23.44,0,111.2,13.03,26.28,74.3
"2016-07-17 01:25:30",1815940,12.7,112,0.502,0.06,25.62,110.2088,25.43,26.36,23.44,0,111.2,13.03,26.27,74.0
"2016-07-17 01:26:00",1815941,12.77,111.6,0.458,0.049,25.64,110.2068,25.43,26.36,23.44,0,111.2,13.03,26.27,73.6
"2016-07-17 01:26:30",1815942,12.78,112,0.493,0.065,25.65,110.2031,25.42,26.35,23.37,0,111.2,13.03,26.26,74.0
"2016-07-17 01:27:00",1815943,12.77,112.9,0.659,0.065,25.68,110.202,25.41,26.34,23.41,0,111.2,13.03,26.25,74.9
"2016-07-17 01:27:30",1815944,12.79,112.6,0.421,0.055,25.66,110.1984,25.4,26.34,23.43,0,111.2,13.03,26.24,74.6
"2016-07-17 01:28:00",1815945,12.77,113,0.706,0.093,25.66,110.1964,25.4,26.36,23.44,0,111.2,13.03,26.24,75.0
"2016-07-17 01:28:30",1815946,12.81,113.6,0.507,0.128,25.7,110.1961,25.4,26.35,23.56,0,111.2,13.03,26.24,75.6
"2016-07-17 01:29:00",1815947,12.7,113.5,0.449,0.081,25.74,110.1916,25.39,26.33,23.49,0,111.2,13.03,26.23,75.5
"2016-07-17 01:29:30",1815948,12.69,113.9,0.503,0.068,25.67,110.1939,25.39,26.32,23.76,0,111.2,13.03,26.23,75.9
"2016-07-17 01:30:00",1815949,12.77,114,0.595,0.106,25.63,110.1916,25.39,26.35,23.97,0,111.2,13.03,26.23,76.0
"2016-07-17 01:30:30",1815950,12.89,113.6,0.36,0.054,25.65,110.1908,25.38,26.35,24.37,0,111.2,13.03,26.23,75.6
"2016-07-17 01:31:00",1815951,12.82,113.9,0.455,0.097,25.68,110.1866,25.37,26.34,24.35,0,111.2,13.03,26.21,75.9
"2016-07-17 01:31:30",1815952,12.75,113.7,0.264,0.08,25.69,110.1829,25.36,26.35,24.39,0,111.2,13.03,26.20,75.7
"2016-07-17 01:32:00",1815953,12.65,114.1,0.487,0.058,25.71,110.1821,25.36,26.34,24.36,0,111.2,13.03,26.20,76.1
"2016-07-17 01:32:30",1815954,12.52,114.7,0.396,0.174,25.69,110.1823,25.36,26.34,24.45,0,111.2,13.03,26.20,76.7
"2016-07-17 01:33:00",1815955,12.23,115.2,0.559,0.094,25.8,110.1821,25.36,26.34,24.17,0,111.2,13.03,26.20,77.2
"2016-07-17 01:33:30",1815956,12.26,115.4,0.532,0.097,25.78,110.1821,25.36,26.33,24.15,0,111.2,13.03,26.20,77.4
"2016-07-17 01:34:00",1815957,12.34,114.9,0.61,0.091,25.71,110.1821,25.36,26.34,24.42,0,111.2,13.03,26.20,76.9
"2016-07-17 01:34:30",1815958,12.25,115.7,0.306,0.054,25.81,110.1821,25.36,26.33,24.36,0,111.2,13.02,26.20,77.7
"2016-07-17 01:35:00",1815959,12.3,115.9,0.315,0.051,25.82,110.1823,25.36,26.34,24.34,0,111.2,13.02,26.20,77.9
"2016-07-17 01:35:30",1815960,12.27,115.7,0.659,0.101,25.69,110.1849,25.37,26.34,24.47,0,111.2,13.02,26.21,77.7
"2016-07-17 01:36:00",1815961,12.32,115.5,0.507,0.116,25.69,110.1905,25.38,26.34,24.64,0,111.2,13.02,26.22,77.5
"2016-07-17 01:36:30",1815962,12.36,115.2,0.586,0.108,25.68,110.1919,25.39,26.33,24.53,0,111.2,13.02,26.23,77.2
"2016-07-17 01:37:00",1815963,12.14,115.9,0.546,0.114,25.75,110.1936,25.39,26.35,24.41,0,111.2,13.02,26.23,77.9
"2016-07-17 01:37:30",1815964,12.02,116.7,0.471,0.079,25.68,110.1964,25.4,26.36,24.36,0,111.2,13.02,26.24,78.7
"2016-07-17 01:38:00",1815965,11.9,117.2,0.553,0.089,25.78,110.2003,25.41,26.34,24.23,0,111.2,13.02,26.25,79.2
"2016-07-17 01:38:30",1815966,12.12,116.6,0.662,0.08,25.78,110.2048,25.42,26.37,24.18,0,111.2,13.02,26.26,78.6
"2016-07-17 01:39:00",1815967,12.12,115.3,0.78,0.115,25.65,110.2076,25.43,26.35,24.49,0,111.2,13.02,26.27,77.3
"2016-07-17 01:39:30",1815968,12.13,115.2,0.515,0.041,25.78,110.2099,25.43,26.35,24.72,0,111.2,13.03,26.27,77.2
"2016-07-17 01:40:00",1815969,12.29,114.4,0.696,0.101,25.7,110.2093,25.43,26.36,24.76,0,111.2,13.03,26.27,76.4
"2016-07-17 01:40:30",1815970,12.28,115.2,0.502,0.075,25.69,110.2113,25.44,26.37,24.87,0,111.2,13.03,26.28,77.2
"2016-07-17 01:41:00",1815971,12.23,115.1,0.46,0.084,25.71,110.2079,25.43,26.37,24.91,0,111.2,13.03,26.27,77.1
"2016-07-17 01:41:30",1815972,12.13,114.6,0.444,0.053,25.75,110.2057,25.42,26.37,24.86,0,111.2,13.03,26.26,76.6
"2016-07-17 01:42:00",1815973,12.26,114.4,0.541,0.069,25.68,110.2014,25.41,26.37,24.68,0,111.2,13.03,26.25,76.4
"2016-07-17 01:42:30",1815974,12.31,114.5,0.51,0.109,25.65,110.1933,25.39,26.39,24.72,0,111.2,13.03,26.23,76.5
"2016-07-17 01:43:00",1815975,12.4,114.4,0.541,0.085,25.68,110.186,25.37,26.36,24.88,0,111.2,13.03,26.21,76.4
"2016-07-17 01:43:30",1815976,12.35,114,0.605,0.147,25.61,110.1823,25.36,26.36,24.73,0,111.2,13.03,26.20,76.0
"2016-07-17 01:44:00",1815977,12.32,115.2,0.506,0.079,25.67,110.1824,25.36,26.36,24.19,0,111.2,13.03,26.20,77.2
"2016-07-17 01:44:30",1815978,12.43,115.5,0.535,0.043,25.63,110.183,25.36,26.35,23.7,0,111.2,13.03,26.21,77.5
"2016-07-17 01:45:00",1815979,12.3,115.9,0.268,0.101,25.73,110.1821,25.36,26.34,24.33,0,111.2,13.03,26.20,77.9
"2016-07-17 01:45:30",1815980,12.08,116.8,0.345,0.079,25.68,110.1833,25.37,26.35,24.59,0,111.2,13.03,26.21,78.8
"2016-07-17 01:46:00",1815981,11.91,117.2,0.471,0.061,25.68,110.1836,25.37,26.35,24.73,0,111.2,13.03,26.21,79.2
"2016-07-17 01:46:30",1815982,11.75,117.5,0.557,0.12,25.84,110.1845,25.37,26.35,24.61,0,111.2,13.03,26.21,79.5
"2016-07-17 01:47:00",1815983,11.57,117,0.399,0.058,25.86,110.1833,25.37,26.34,24.79,0,111.2,13.03,26.21,79.0
"2016-07-17 01:47:30",1815984,11.98,116.5,0.473,0.181,25.8,110.1845,25.37,26.34,23.35,0,111.2,13.03,26.21,78.5
"2016-07-17 01:48:00",1815985,11.82,117.4,0.579,0.115,25.86,110.1852,25.37,26.33,22.64,0,111.2,13.03,26.21,79.4